www.pogodaiklimat.ru

Погода и климат >> Архив погоды >> Норвегия >> Сёркаппёйа


ПОГОДА на Сёркаппёйа

  • Прогноз погоды на Сёркаппёйа
  • Монитор погоды на Сёркаппёйа

АРХИВ ПОГОДЫ на Сёркаппёйа

Время (UTC), дата Ветер
(напр.,м/с)
 
Видим.   Явления Облачность Т
(С)
Тd
(С)
f
(%)
Тe
(С)
Тes
(С)
Комфортность P
(гПа)
Po
(гПа)
Тmin
(С)
Tmax
(С)
R
(мм)
R24
(мм)
S
(см)
19 8.09 ЮВ 6
{7}
н/о н/о +4.1 +3.8 98 -2 -2 1008.2 1007.1
20 8.09 ЮВ 5
{7}
н/о н/о +4.1 +3.8 98 -1 -1 1007.6 1006.6
21 8.09 В 5
{6}
н/о н/о +3.8 +3.4 97 -2 -2 1006.9 1005.8
22 8.09 В 5
{6}
н/о н/о +3.7 +3.4 98 -2 -2 1006.8 1005.8
00 9.09 СВ 10 н/о н/о +3.2 +2.9 98 -4 -4 1005.8 1004.8
01 9.09 СВ 13
{14}
н/о н/о +2.7 +2.4 98 -6 -6 1005.3 1004.3
02 9.09 СВ 12
{14}
н/о н/о +3.0 +2.7 98 -5 -5 1005.3 1004.2
03 9.09 СВ 13
{15}
н/о н/о +3.0 +2.6 97 -5 -5 1005.5 1004.4
04 9.09 СВ 14
{15}
н/о н/о +2.7 +2.3 97 -6 -6 1005.7 1004.6
06 9.09 СВ 16 н/о н/о +2.3 +1.7 96 -7 -7 1006.7 1005.6
07 9.09 СВ 16
{19}
н/о н/о +2.1 +1.5 96 -7 -7 1007.8 1006.8
08 9.09 СВ 15
{18}
н/о н/о +1.9 +1.2 95 -7 -7 1009.0 1007.9
09 9.09 СВ 16
{18}
н/о н/о +2.2 +1.0 92 -7 -7 1009.5 1008.4
10 9.09 СВ 15
{18}
н/о н/о +2.0 +1.1 94 -7 -7 1011.0 1009.9
11 9.09 СВ 15
{18}
н/о н/о +2.0 +1.1 94 -7 -7 1011.7 1010.7
12 9.09 СВ 14
{19}
н/о н/о +1.8 +1.1 95 -7 -7 1012.7 1011.7
13 9.09 СВ 14
{16}
н/о н/о +1.8 +1.1 95 -7 -7 1013.4 1012.4
14 9.09 СВ 14
{16}
н/о н/о +1.8 +1.2 96 -7 -7 1014.1 1013.0
15 9.09 СВ 13
{16}
н/о н/о +1.8 +1.4 97 -7 -7 1014.7 1013.6
17 9.09 В 13
{15}
н/о н/о +2.1 +1.4 95 -6 -6 1014.9 1013.8
18 9.09 В 13 н/о н/о +2.0 +1.4 96 -7 -7 1014.8 1013.8
19 9.09 В 13
{16}
н/о н/о +1.9 +1.3 96 -7 -7 1015.3 1014.2
21 9.09 В 14
{15}
н/о н/о +2.5 +2.2 98 -6 -6 1014.2 1013.2
22 9.09 В 13
{16}
н/о н/о +2.6 +2.3 98 -6 -6 1013.8 1012.7
23 9.09 В 13
{14}
н/о н/о +2.8 +2.5 98 -6 -6 1013.1 1012.1
00 10.09 СВ 12 н/о н/о +2.9 +2.8 99 -5 -5 1012.3 1011.3
01 10.09 СВ 13
{14}
н/о н/о +2.8 +2.7 99 -6 -6 1011.4 1010.3
02 10.09 СВ 12
{15}
н/о н/о +3.2 +3.1 99 -5 -5 1010.5 1009.4
03 10.09 СВ 11
{13}
н/о н/о +3.5 +3.4 99 -4 -4 1009.9 1008.8
04 10.09 СВ 7
{13}
н/о н/о +3.8 +3.7 99 -2 -2 1009.8 1008.8
05 10.09 СВ 7
{10}
н/о н/о +3.2 +3.1 99 -3 -3 1009.4 1008.3
06 10.09 СВ 7
{15}
н/о н/о +2.9 +2.8 99 -4 -4 1009.3 1008.3
07 10.09 В 7
{8}
н/о н/о +2.9 +2.8 99 -4 -4 1009.2 1008.1
10 10.09 СВ 7
{9}
н/о н/о +2.7 +2.6 99 -4 -4 1008.3 1007.2
11 10.09 В 4
{8}
н/о н/о +5.0 +4.7 98 +1 +1 1008.1 1007.0
12 10.09 В 4 н/о н/о +4.3 +4.0 98 -0 -0 1007.7 1006.7
13 10.09 ЮВ 6
{8}
н/о н/о +5.4 +5.1 98 0 0 1007.0 1006.0
14 10.09 Ю 7
{8}
н/о н/о +5.4 +5.1 98 -0 -0 1006.5 1005.5
15 10.09 Ю 7
{8}
н/о н/о +5.2 +5.1 99 -1 -1 1005.8 1004.7
16 10.09 Ю 8
{9}
н/о н/о +5.6 +5.5 99 -0 -0 1005.1 1004.1
18 10.09 Ю 9 н/о н/о +5.6 +5.3 98 -1 -1 1003.6 1002.6
19 10.09 Ю 9
{11}
н/о н/о +5.6 +5.2 97 -1 -1 1003.0 1001.9
20 10.09 Ю 9
{11}
н/о н/о +5.6 +5.2 97 -1 -1 1002.4 1001.3
21 10.09 Ю 10
{12}
н/о н/о +5.6 +5.2 97 -1 -1 1001.9 1000.8
22 10.09 Ю 9
{11}
н/о н/о +5.3 +5.0 98 -1 -1 1001.8 1000.7
23 10.09 Ю 7
{9}
н/о н/о +5.4 +5.3 99 -0 -0 1001.9 1000.8
00 11.09 Ю 6
{12}
н/о н/о +5.1 +5.0 99 -0 -0 1001.6 1000.6
02 11.09 ЮЗ 6
{9}
н/о н/о +4.9 +3.3 89 -0 -0 1001.5 1000.5
03 11.09 ЮЗ 5
{8}
н/о н/о +4.8 +3.9 94 -0 -0 1001.6 1000.6
04 11.09 ЮЗ 4
{6}
н/о н/о +4.3 +4.0 98 -0 -0 1002.1 1001.1
05 11.09 ЮЗ 4
{6}
н/о н/о +4.2 +3.8 97 -0 -0 1002.6 1001.5
07 11.09 ЮЗ 4
{6}
н/о н/о +3.9 +3.6 98 -1 -1 1003.2 1002.2
10 11.09 ЮЗ 3
{4}
н/о н/о +3.7 +3.4 98 -0 -0 1004.4 1003.4
11 11.09 ЮЗ 2
{3}
н/о н/о +3.4 +3.1 98 0 0 1004.8 1003.7
12 11.09 ЮЗ 2 н/о н/о +3.3 +3.0 98 0 0 1005.2 1004.2
13 11.09 З 1
{2}
н/о н/о +3.3 +3.2 99 +2 +2 1005.0 1003.9
14 11.09 Ю 1
{1}
н/о н/о +3.5 +3.4 99 +2 +2 1005.2 1004.2
15 11.09 В 2
{2}
н/о н/о +3.1 +3.0 99 -0 -0 1004.8 1003.7
17 11.09 В 3
{4}
н/о н/о +3.1 +3.0 99 -1 -1 1004.0 1002.9
19 11.09 СВ 6
{6}
н/о н/о +3.1 +3.0 99 -3 -3 1003.3 1002.3
20 11.09 СВ 7
{8}
н/о н/о +3.4 +3.3 99 -3 -3 1002.6 1001.6
21 11.09 СВ 8
{9}
н/о н/о +3.4 +3.3 99 -3 -3 1002.4 1001.3
22 11.09 СВ 10
{12}
н/о н/о +3.3 +3.2 99 -4 -4 1001.3 1000.2
23 11.09 СВ 11
{12}
н/о н/о +3.4 +3.3 99 -4 -4 1000.4 999.4
00 12.09 СВ 13
{15}
н/о н/о +3.5 +3.4 99 -5 -5 999.4 998.4
01 12.09 СВ 15
{16}
н/о н/о +3.5 +3.4 99 -5 -5 998.6 997.5
02 12.09 СВ 16
{18}
н/о н/о +3.5 +3.4 99 -5 -5 997.6 996.5
03 12.09 СВ 18
{20}
н/о н/о +3.6 +3.2 97 -5 -5 995.9 994.9
04 12.09 СВ 19
{22}
н/о н/о +3.7 +3.1 96 -5 -5 995.2 994.2
06 12.09 СВ 20 н/о н/о +3.2 +2.8 97 -6 -6 993.7 992.6
07 12.09 СВ 18
{24}
н/о н/о +3.1 +2.5 96 -6 -6 993.8 992.8
08 12.09 СВ 18
{27}
н/о н/о +3.1 +2.7 97 -6 -6 994.0 993.0
09 12.09 СВ 20
{25}
н/о н/о +3.2 +2.9 98 -6 -6 992.1 991.0
10 12.09 СВ 20
{24}
н/о н/о +3.1 +2.8 98 -6 -6 992.0 990.9
11 12.09 СВ 19
{23}
н/о н/о +3.3 +3.2 99 -6 -6 992.3 991.3
12 12.09 СВ 18
{27}
н/о н/о +3.4 +3.3 99 -6 -6 991.3 990.3
13 12.09 СВ 19
{21}
н/о н/о +3.3 +3.0 98 -6 -6 991.6 990.6
14 12.09 СВ 18
{22}
н/о н/о +3.3 +3.0 98 -6 -6 991.2 990.1
16 12.09 СВ 16
{20}
н/о н/о +3.2 +3.1 99 -6 -6 991.7 990.7
19 12.09 СВ 14
{17}
н/о н/о +3.3 +3.2 99 -5 -5 992.1 991.0
21 12.09 СВ 11
{15}
н/о н/о +3.4 +3.3 99 -4 -4 992.7 991.6
22 12.09 СВ 13
{15}
н/о н/о +3.2 +2.9 98 -5 -5 992.2 991.2
23 12.09 СВ 12
{14}
н/о н/о +3.3 +2.7 96 -5 -5 992.2 991.2
00 13.09 СВ 12 н/о н/о +3.3 +2.7 96 -5 -5 992.5 991.5
01 13.09 СВ 14
{17}
н/о н/о +3.0 +2.6 97 -5 -5 992.2 991.1
02 13.09 СВ 13
{17}
н/о н/о +3.3 +2.9 97 -5 -5 991.9 990.9
03 13.09 СВ 14
{16}
н/о н/о +3.1 +2.7 97 -5 -5 992.1 991.0
04 13.09 СВ 14
{16}
н/о н/о +3.1 +2.7 97 -5 -5 992.0 991.0
05 13.09 СВ 13
{15}
н/о н/о +3.6 +3.0 96 -4 -4 991.8 990.7
06 13.09 СВ 13
{17}
н/о н/о +3.6 +2.9 95 -4 -4 991.4 990.4
07 13.09 СВ 15
{17}
н/о н/о +3.3 +2.7 96 -5 -5 991.5 990.5
09 13.09 СВ 14
{17}
н/о н/о +3.5 +2.9 96 -5 -5 991.9 990.9
10 13.09 СВ 13 н/о н/о +3.2 +2.8 97 -5 -5 992.3 991.2
11 13.09 СВ 12 н/о н/о +3.5 +3.2 98 -4 -4 992.3 991.2
12 13.09 СВ 13 н/о н/о +3.3 +2.9 97 -5 -5 992.6 991.6
13 13.09 СВ 13 н/о н/о +3.2 +2.9 98 -5 -5 992.9 991.9
14 13.09 СВ 10 н/о н/о +3.2 +2.9 98 -4 -4 993.3 992.3
15 13.09 СВ 9 н/о н/о +3.4 +3.1 98 -4 -4 993.7 992.7
16 13.09 СВ 9 н/о н/о +3.3 +3.0 98 -4 -4 994.1 993.1
18 13.09 В 6 н/о н/о +3.2 +2.8 97 -3 -3 994.9 993.8
19 13.09 В 5 н/о н/о +3.2 +2.9 98 -2 -2 995.3 994.2
20 13.09 СВ 5 н/о н/о +3.3 +2.9 97 -2 -2 995.2 994.2
21 13.09 З 1 н/о н/о +3.2 +2.9 98 +1 +1 995.6 994.6
22 13.09 СВ 1 н/о н/о +3.2 +2.9 98 +1 +1 995.7 994.6
23 13.09 СВ 4 н/о н/о +3.8 +3.1 95 -1 -1 995.6 994.5
00 14.09 СВ 5
{8}
н/о н/о +3.3 +2.6 95 -2 -2 995.9 994.8
03 14.09 СВ 9 н/о н/о +3.2 +2.6 96 -4 -4 995.5 994.4
04 14.09 СВ 8
{10}
н/о н/о +3.1 +2.8 98 -4 -4 995.6 994.6
05 14.09 СВ 11
{12}
н/о н/о +3.1 +2.5 96 -5 -5 995.1 994.0
07 14.09 СВ 14 н/о н/о +3.4 +2.5 94 -5 -5 994.7 993.6
11 14.09 СВ 12
{14}
н/о н/о +3.3 +3.0 98 -5 -5 995.2 994.1
12 14.09 СВ 11 н/о н/о +3.4 +3.1 98 -4 -4 995.5 994.5
13 14.09 СВ 11
{14}
н/о н/о +3.1 +3.0 99 -5 -5 995.4 994.4
14 14.09 СВ 12
{14}
н/о н/о +3.1 +2.8 98 -5 -5 995.2 994.2
15 14.09 СВ 11
{14}
н/о н/о +3.0 +2.7 98 -5 -5 994.9 993.9
17 14.09 СВ 12
{14}
н/о н/о +2.8 +2.5 98 -5 -5 994.2 993.2
19 14.09 СВ 11
{14}
н/о н/о +2.6 +2.3 98 -5 -5 993.8 992.8
20 14.09 СВ 7
{13}
н/о н/о +2.7 +2.6 99 -4 -4 994.2 993.1
21 14.09 СВ 5
{8}
н/о н/о +2.8 +2.7 99 -3 -3 994.5 993.5
23 14.09 СВ 7
{8}
н/о н/о +2.8 +2.7 99 -4 -4 995.1 994.1
00 15.09 В 6 н/о н/о +3.4 +3.3 99 -3 -3 995.8 994.7
01 15.09 В 7
{9}
н/о н/о +3.1 +3.0 99 -3 -3 996.2 995.2
02 15.09 В 7
{8}
н/о н/о +2.8 +2.7 99 -4 -4 996.7 995.6
03 15.09 В 6
{8}
н/о н/о +3.0 +2.9 99 -3 -3 997.1 996.1
04 15.09 В 6
{8}
н/о н/о +3.2 +3.1 99 -3 -3 997.3 996.2
05 15.09 В 6
{7}
н/о н/о +3.2 +3.1 99 -3 -3 997.7 996.6
06 15.09 В 6
{9}
н/о н/о +3.4 +3.3 99 -3 -3 998.3 997.2
07 15.09 ЮВ 5
{7}
н/о н/о +4.0 +3.9 99 -1 -1 999.1 998.1
08 15.09 ЮВ 5
{6}
н/о н/о +3.9 +3.8 99 -1 -1 1000.1 999.1
09 15.09 В 6
{7}
н/о н/о +4.1 +4.0 99 -2 -2 1001.1 1000.1
10 15.09 В 8
{9}
н/о н/о +3.9 +3.6 98 -3 -3 1002.0 1001.0
11 15.09 В 8
{9}
н/о н/о +3.4 +3.3 99 -3 -3 1002.9 1001.9
12 15.09 В 7
{9}
н/о н/о +3.9 +3.8 99 -2 -2 1003.8 1002.8
13 15.09 В 7
{8}
н/о н/о +4.1 +3.5 96 -2 -2 1004.4 1003.4
14 15.09 В 7
{9}
н/о н/о +4.0 +3.4 96 -2 -2 1005.2 1004.1
15 15.09 В 6
{7}
н/о н/о +3.8 +3.4 97 -2 -2 1005.8 1004.7
16 15.09 В 6
{7}
н/о н/о +3.6 +3.0 96 -2 -2 1006.4 1005.4
18 15.09 В 7 н/о н/о +3.4 +3.0 97 -3 -3 1007.6 1006.6
19 15.09 В 7
{8}
н/о н/о +3.2 +2.9 98 -3 -3 1008.2 1007.1

 

Местоположение метеостанции Сёркаппёйа (Норвегия): широта 76.48 долгота 16.55 высота над уровнем моря 10 м.

В архиве по умолчанию представлена погода на Сёркаппёйа за последнюю неделю. Архивные данные за месяц целиком и за предыдущие месяцы, начиная с января 2011 года, Вы можете получить, выбрав интересующий диапазон дат из раскрывающегося списка и нажав кнопку "Ввод!".


*Определитесь, кто Вы:
робот инопланетянин человек

Внимание! Время в таблицах - всемирное. Для получения местного времени необходимо прибавить поправку, которая равна 1 ч.

Смотрите также архив погоды в соседних городах и на ближайших метеорологических станциях:

Погода на Хорнсунне (Норвегия) (63 км)
Погода на Акселойа (Норвегия) (141 км)
Погода в Баренцбурге (Шпицберген, Россия) (186 км)
Погода в Свальбард аэропорту (Норвегия) (199 км)
Погода в Хопене (Норвегия) (220 км)
Погода на Острове Медвежий (Норвегия) (228 км)
Погода в Пирамиде (Норвегия) (243 км)
Погода на Эдже (Норвегия) (249 км)
Погода в Ню-Олесунн (Норвегия) (292 км)
Погода на Верлегенхукен (Норвегия) (397 км)

Пояснения к столбцам:

Ветер - указаны скорость ветра в м/с - средняя за 10 мин, порывы в срок и между сроками (в фигурных скобках) и направление, откуда дует ветер: С - северный, СВ - северо-восточный, В - восточный, ЮВ - юго-восточный, Ю - южный, ЮЗ - юго-западный, З - западный, СЗ - северо-западный.
Видимость - горизонтальная дальность видимости в метрах или километрах. При видимости от 1 до 10 км при отсутствии осадков обычно наблюдается дымка, при ухудшении видимости до 1 км и менее - туман. В сухую погоду видимость может ухудшаться дымом, пылью или мглою.
Явления - указаны атмосферные явления, наблюдавшиеся в срок или в последний час перед сроком; фигурными скобками обозначены явления, наблюдавшиеся между сроками (за 1-3 часа до срока); квадратными скобками обозначены град или гололедные отложения с указанием их диаметра в мм.
Облачность - указаны через наклонную черту общая и нижняя облачность в баллах и высота нижней границы облаков в метрах; квадратными скобками обозначены формы облаков: Ci - перистые, Cs - перисто-слоистые, Cc - перисто-кучевые, Ac - высококучевые, As - высокослоистые, Sc - слоисто-кучевые, Ns - слоисто-дождевые, Cu - кучевые, Cb - кучево-дождевые. Подробнее классификацию облаков см. в Атласе облаков (PDF).
T - Температура воздуха - температура, измеренная на высоте 2 м над землей.
Td - Температура точки росы - температура, при понижении до которой содержащийся в воздухе водяной пар достигнет насыщения.
f - Относительная влажность воздуха - влажноcть воздуха, измеренная на высоте 2 м над землей.
Te - Эффективная температура - температура, которую ощущает одетый по сезону человек в тени. Характеристика душности погоды. При расчете учитывается влияние влажности воздуха и скорости ветра на теплоощущения человека.
Tes - Эффективная температура на солнце - температура, которую ощущает человек, с поправкой на солнечный нагрев. Характеристика знойности погоды. Зависит от высоты солнца над горизонтом, облачности и скорости ветра. Ночью, в пасмурную погоду, а также при ветре 12 м/с и более поправка равна нулю.
P - Атмосферное давление - приведенное к уровню моря атмосферное давление.
Po - Атмосферное давление - измеренное на уровне метеостанции атмосферное давление.
Tmin - Минимальная температура - минимум температуры воздуха на высоте 2 м над землей.
Tmax - Максимальная температура - максимум температуры воздуха на высоте 2 м над землей.
R - Количество осадков - Количество выпавших осадков за период времени, мм. При наведении курсора мыши на число - период времени, за который выпало указанное количество осадков.
R24 - Количество осадков - Количество выпавших осадков за 24 часа, мм.
S - Снежный покров - Высота снежного покрова, см. При наведении курсора мыши на число - состояние снежного покрова и степень покрытия местности в баллах.